When you browse on this site, cookies collect data to enhance your experience and personalize the content and advertising you see.
Visit our Privacy Policy to learn more. By continuing to use the site, you agree to this use of cookies and data.
  • In Österreich
  • Länderverzeichnis
  • Für 7 Tage
  • Wassertemperatur
  • Wetterkarte
  • News
  • Widgets
  • user-avatar
    Anmelden

    Stündliche Wetter Podbolote

    Heute, 18 Oktober, Freitag

    Zeit Temperatur Niederschläge Wind Luftdruck Luftfeuchtigkeit
    00:00 +11°C° 0 mm 1 m/S 750 mmHg 78%
    01:00 +11°C° 0 mm 1 m/S 751 mmHg 77%
    02:00 +11°C° 0 mm 1 m/S 751 mmHg 77%
    03:00 +11°C° 0 mm 1 m/S 750 mmHg 78%
    04:00 +11°C° 0 mm 1 m/S 750 mmHg 78%
    05:00 +10°C° 0 mm 1 m/S 750 mmHg 78%
    06:00 +10°C° 0 mm 2 m/S 750 mmHg 78%
    07:00 +10°C° 0 mm 2 m/S 750 mmHg 77%
    08:00 +10°C° 0 mm 2 m/S 751 mmHg 76%
    09:00 +13°C° 0 mm 2 m/S 750 mmHg 70%
    10:00 +15°C° 0 mm 2 m/S 750 mmHg 65%
    11:00 +17°C° 0 mm 2 m/S 750 mmHg 59%
    12:00 +17°C° 0 mm 3 m/S 750 mmHg 59%
    13:00 +18°C° 0 mm 3 m/S 750 mmHg 59%
    14:00 +19°C° 0 mm 3 m/S 749 mmHg 59%
    15:00 +18°C° 0 mm 3 m/S 749 mmHg 65%
    16:00 +17°C° 0 mm 2 m/S 749 mmHg 70%
    17:00 +16°C° 0 mm 2 m/S 749 mmHg 76%
    18:00 +15°C° 0 mm 2 m/S 749 mmHg 80%
    19:00 +15°C° 0 mm 2 m/S 748 mmHg 83%
    20:00 +14°C° 0 mm 2 m/S 748 mmHg 87%
    21:00 +14°C° 0 mm 2 m/S 748 mmHg 88%
    22:00 +13°C° 0 mm 2 m/S 748 mmHg 88%
    23:00 +12°C° 0 mm 3 m/S 748 mmHg 89%

    Morgen, 19 Oktober, Samstag

    Zeit Temperatur Niederschläge Wind Luftdruck Luftfeuchtigkeit
    00:00 +13°C° 0 mm 3 m/S 748 mmHg 85%
    01:00 +13°C° 0 mm 3 m/S 748 mmHg 82%
    02:00 +14°C° 0 mm 3 m/S 748 mmHg 79%
    03:00 +13°C° 0 mm 3 m/S 748 mmHg 79%
    04:00 +14°C° 0 mm 2 m/S 748 mmHg 79%
    05:00 +14°C° 0 mm 2 m/S 748 mmHg 79%
    06:00 +14°C° 0 mm 2 m/S 748 mmHg 79%
    07:00 +14°C° 0 mm 2 m/S 749 mmHg 78%
    08:00 +14°C° 0 mm 2 m/S 749 mmHg 78%
    09:00 +15°C° 0 mm 2 m/S 749 mmHg 72%
    10:00 +17°C° 0 mm 2 m/S 749 mmHg 67%
    11:00 +18°C° 0 mm 3 m/S 749 mmHg 62%
    12:00 +19°C° 0 mm 3 m/S 749 mmHg 60%
    13:00 +19°C° 0 mm 3 m/S 749 mmHg 59%
    14:00 +20°C° 0 mm 3 m/S 748 mmHg 58%
    15:00 +19°C° 0 mm 3 m/S 748 mmHg 62%
    16:00 +18°C° 0 mm 3 m/S 748 mmHg 67%
    17:00 +17°C° 0 mm 2 m/S 748 mmHg 72%
    18:00 +16°C° 0 mm 2 m/S 748 mmHg 74%
    19:00 +16°C° 0 mm 2 m/S 748 mmHg 76%
    20:00 +15°C° 0 mm 2 m/S 748 mmHg 78%
    21:00 +15°C° 0 mm 2 m/S 749 mmHg 77%
    22:00 +14°C° 0 mm 3 m/S 749 mmHg 77%
    23:00 +14°C° 0 mm 3 m/S 749 mmHg 76%

    übermorgen, 20 Oktober, Sonntag

    Zeit Temperatur Niederschläge Wind Luftdruck Luftfeuchtigkeit
    00:00 +14°C° 0 mm 3 m/S 749 mmHg 77%
    01:00 +14°C° 0 mm 3 m/S 749 mmHg 78%
    02:00 +13°C° 0 mm 3 m/S 749 mmHg 79%
    03:00 +13°C° 0 mm 3 m/S 749 mmHg 80%
    04:00 +13°C° 0 mm 3 m/S 749 mmHg 81%
    05:00 +12°C° 0 mm 3 m/S 749 mmHg 82%
    06:00 +12°C° 0 mm 3 m/S 749 mmHg 81%
    07:00 +12°C° 0 mm 3 m/S 749 mmHg 80%
    08:00 +13°C° 0 mm 3 m/S 749 mmHg 79%
    09:00 +14°C° 0 mm 3 m/S 749 mmHg 73%
    10:00 +17°C° 0 mm 3 m/S 749 mmHg 67%
    11:00 +19°C° 0 mm 3 m/S 749 mmHg 61%
    12:00 +19°C° 0 mm 3 m/S 749 mmHg 59%
    13:00 +20°C° 0 mm 3 m/S 749 mmHg 56%
    14:00 +21°C° 0 mm 3 m/S 749 mmHg 54%
    15:00 +20°C° 0 mm 3 m/S 749 mmHg 59%
    16:00 +19°C° 0 mm 2 m/S 749 mmHg 64%
    17:00 +18°C° 0 mm 2 m/S 749 mmHg 69%
    18:00 +18°C° 0 mm 1 m/S 749 mmHg 72%
    19:00 +16°C° 0 mm 1 m/S 749 mmHg 75%
    20:00 +15°C° 0 mm 1 m/S 749 mmHg 78%
    21:00 +15°C° 0 mm 2 m/S 749 mmHg 79%
    22:00 +15°C° 0 mm 2 m/S 749 mmHg 80%
    23:00 +14°C° 0 mm 2 m/S 749 mmHg 81%

    21 Oktober, Montag

    Zeit Temperatur Niederschläge Wind Luftdruck Luftfeuchtigkeit
    00:00 +14°C° 0 mm 2 m/S 749 mmHg 81%
    01:00 +14°C° 0 mm 2 m/S 749 mmHg 82%
    02:00 +13°C° 0 mm 3 m/S 749 mmHg 82%
    03:00 +12°C° 0 mm 3 m/S 749 mmHg 82%
    04:00 +12°C° 0 mm 3 m/S 749 mmHg 81%
    05:00 +12°C° 0 mm 3 m/S 749 mmHg 81%
    06:00 +12°C° 0 mm 3 m/S 748 mmHg 80%
    07:00 +13°C° 0 mm 3 m/S 748 mmHg 78%
    08:00 +13°C° 0 mm 3 m/S 748 mmHg 77%
    09:00 +15°C° 0 mm 4 m/S 748 mmHg 69%
    10:00 +18°C° 0 mm 4 m/S 748 mmHg 61%
    11:00 +20°C° 0 mm 5 m/S 748 mmHg 53%
    12:00 +21°C° 0 mm 5 m/S 748 mmHg 51%
    13:00 +22°C° 0 mm 5 m/S 748 mmHg 49%
    14:00 +23°C° 0 mm 5 m/S 748 mmHg 47%
    15:00 +21°C° 0 mm 4 m/S 748 mmHg 52%
    16:00 +20°C° 0 mm 3 m/S 747 mmHg 58%
    17:00 +19°C° 0 mm 2 m/S 747 mmHg 63%
    18:00 +18°C° 0 mm 2 m/S 747 mmHg 66%
    19:00 +17°C° 0 mm 2 m/S 747 mmHg 69%
    20:00 +16°C° 0 mm 2 m/S 747 mmHg 71%
    21:00 +16°C° 0 mm 2 m/S 747 mmHg 74%
    22:00 +15°C° 0 mm 2 m/S 747 mmHg 77%
    23:00 +14°C° 0 mm 3 m/S 747 mmHg 80%

    22 Oktober, Dienstag

    Zeit Temperatur Niederschläge Wind Luftdruck Luftfeuchtigkeit
    00:00 +13°C° 0 mm 3 m/S 748 mmHg 83%
    01:00 +13°C° 0 mm 4 m/S 748 mmHg 87%
    02:00 +13°C° 0 mm 4 m/S 749 mmHg 90%
    03:00 +12°C° 0 mm 4 m/S 749 mmHg 92%
    04:00 +12°C° 0 mm 4 m/S 749 mmHg 93%
    05:00 +12°C° 0 mm 4 m/S 750 mmHg 95%
    06:00 +12°C° 0 mm 4 m/S 750 mmHg 89%
    07:00 +12°C° 0 mm 5 m/S 751 mmHg 83%
    08:00 +11°C° 0 mm 6 m/S 752 mmHg 78%
    09:00 +12°C° 0 mm 5 m/S 753 mmHg 75%
    10:00 +13°C° 0 mm 5 m/S 753 mmHg 72%
    11:00 +13°C° 0 mm 5 m/S 754 mmHg 69%
    12:00 +13°C° 0 mm 5 m/S 754 mmHg 67%
    13:00 +13°C° 0 mm 4 m/S 754 mmHg 65%
    14:00 +14°C° 0 mm 4 m/S 755 mmHg 64%
    15:00 +13°C° 0 mm 3 m/S 755 mmHg 68%
    16:00 +12°C° 0 mm 3 m/S 755 mmHg 72%
    17:00 +12°C° 0 mm 2 m/S 755 mmHg 76%
    18:00 +10°C° 0 mm 2 m/S 756 mmHg 79%
    19:00 +11°C° 0 mm 1 m/S 756 mmHg 82%
    20:00 +10°C° 0 mm 1 m/S 756 mmHg 85%
    21:00 +10°C° 0 mm 1 m/S 756 mmHg 87%
    22:00 +9°C° 0 mm 1 m/S 757 mmHg 89%
    23:00 +9°C° 0 mm 1 m/S 757 mmHg 90%

    23 Oktober, Mittwoch

    Zeit Temperatur Niederschläge Wind Luftdruck Luftfeuchtigkeit
    00:00 +9°C° 0 mm 1 m/S 757 mmHg 91%
    01:00 +8°C° 0 mm 1 m/S 757 mmHg 91%
    02:00 +8°C° 0 mm 1 m/S 757 mmHg 91%
    03:00 +8°C° 0 mm 1 m/S 757 mmHg 91%
    04:00 +8°C° 0 mm 1 m/S 757 mmHg 92%
    05:00 +7°C° 0 mm 1 m/S 757 mmHg 92%
    06:00 +8°C° 0 mm 1 m/S 757 mmHg 92%
    07:00 +8°C° 0 mm 1 m/S 757 mmHg 92%
    08:00 +8°C° 0 mm 1 m/S 757 mmHg 92%
    09:00 +9°C° 0 mm 2 m/S 757 mmHg 84%
    10:00 +10°C° 0 mm 2 m/S 757 mmHg 77%
    11:00 +13°C° 0 mm 2 m/S 757 mmHg 69%
    12:00 +14°C° 0 mm 2 m/S 756 mmHg 65%
    13:00 +14°C° 0 mm 2 m/S 756 mmHg 60%
    14:00 +15°C° 0 mm 2 m/S 756 mmHg 56%
    15:00 +14°C° 0 mm 2 m/S 755 mmHg 61%
    16:00 +13°C° 0 mm 2 m/S 755 mmHg 65%
    17:00 +12°C° 0 mm 1 m/S 754 mmHg 70%
    18:00 +10°C° 0 mm 2 m/S 754 mmHg 71%
    19:00 +10°C° 0 mm 2 m/S 754 mmHg 72%
    20:00 +10°C° 0 mm 2 m/S 754 mmHg 74%
    21:00 +10°C° 0 mm 2 m/S 754 mmHg 72%
    22:00 +10°C° 0 mm 2 m/S 754 mmHg 71%
    23:00 +10°C° 0 mm 3 m/S 754 mmHg 70%
    Mehr zeigen